Location: Okie-Tex Star Party
(36.8978°N, 102.9520°W)
Time: 05:52:53
(UTC-06:00)

Amateur Radio Satellites - All Passes

Search period start: 08 December 2016 05:22
Search period end: 09 December 2016 05:22
Location: Okie-Tex Star Party, 36.8978°N, 102.9520°W

Satellite Date Start Highest point End Downlink Frequencies (MHz)
Time Altitude Azimuth
STARS 08 Dec 05:26:31 05:30:36 36° 262° (W) 05:34:42 437.465
SO-50 08 Dec 05:28:03 05:32:35 87° 240° (WSW) 05:37:01 436.795
KKS-1 08 Dec 05:28:24 05:31:17 17° 266° (W) 05:34:10 437.445
YUBILEINY 08 Dec 05:30:49 05:37:45 25° 69° (ENE) 05:44:38 435.215
ITAMSAT 1 08 Dec 05:35:41 05:38:14 14° 298° (WNW) 05:40:47 435.822/435.867
BEESAT 3 08 Dec 05:43:27 05:46:59 33° 306° (NW) 05:50:35 437.485
CUTE-I 08 Dec 05:48:17 05:49:00 10° 90° (E) 05:49:43 437.470
RS-15 08 Dec 05:48:24 05:55:38 19° 98° (E) 06:03:02 29.354- 29.394
Cosmos 2491 08 Dec 05:58:59 06:04:36 19° 80° (E) 06:10:13 435.465 / 435.565
NOAA 15 08 Dec 06:01:09 06:04:32 17° 93° (E) 06:07:54 137.62
Cubesat XI-IV 08 Dec 06:12:15 06:16:04 20° 94° (E) 06:19:51 437.490
LilacSat-2 08 Dec 06:13:03 06:15:34 17° 94° (E) 06:18:04 437.200
NOAA 18 08 Dec 06:15:34 06:17:52 13° 91° (E) 06:20:10 137.9125
BEESAT 2 08 Dec 06:17:35 06:21:08 32° 306° (NW) 06:24:44 435.950
AIST 1 08 Dec 06:18:18 06:20:11 12° 71° (ENE) 06:22:05
DOVE 4 08 Dec 06:22:29 06:26:29 22° 93° (E) 06:30:22 437.250
GOMX 1 08 Dec 06:22:45 06:28:10 55° 100° (E) 06:33:28 467.674
AO-7 08 Dec 06:28:33 06:34:46 24° 304° (NW) 06:40:59 29.400- 29.500
HORYU 2 08 Dec 06:33:59 06:38:23 64° 285° (WNW) 06:42:44 437.375
STRAND 1 08 Dec 06:40:19 06:44:46 30° 69° (ENE) 06:49:12 437.568
BRITE-PL 08 Dec 06:59:11 07:04:00 32° 290° (WNW) 07:08:57 437.365/2234.400
Cosmos 2504 08 Dec 07:05:29 07:13:53 49° 77° (ENE) 07:21:44 435.465 / 435.565
CINEMA 3 08 Dec 07:24:04 07:27:34 20° 93° (E) 07:30:56 145.822/145.860
CUTE-I 08 Dec 07:24:16 07:29:36 81° 285° (WNW) 07:34:54 437.470
YUBILEINY 08 Dec 07:26:28 07:35:10 66° 268° (W) 07:43:52 435.215
AIST 2 08 Dec 07:27:50 07:31:23 29° 112° (ESE) 07:34:56 435.215
NOAA 15 08 Dec 07:39:26 07:44:34 52° 288° (WNW) 07:49:40 137.62
LilacSat-2 08 Dec 07:46:40 07:49:51 26° 288° (WNW) 07:53:00 437.200
Cubesat XI-IV 08 Dec 07:51:14 07:56:19 46° 289° (WNW) 08:01:21 437.490
Cosmos 2491 08 Dec 07:51:34 08:00:22 78° 277° (W) 08:09:10 435.465 / 435.565
NOAA 18 08 Dec 07:53:30 07:59:02 73° 286° (WNW) 08:04:30 137.9125
AIST 1 08 Dec 07:53:49 07:58:04 49° 267° (W) 08:02:17
RS-15 08 Dec 07:54:28 08:06:09 85° 117° (ESE) 08:18:29 29.354- 29.394
DOVE 4 08 Dec 07:59:22 08:04:16 40° 289° (WNW) 08:09:00 437.250
GOMX 1 08 Dec 08:01:58 08:05:43 19° 295° (WNW) 08:09:27 467.674
HO-68 08 Dec 08:13:08 08:20:03 47° 100° (E) 08:26:55 435.675
STRAND 1 08 Dec 08:19:28 08:23:51 28° 264° (W) 08:28:16 437.568
CUTE 1.7 + AOD 2 08 Dec 08:25:48 08:29:58 58° 100° (E) 08:34:08 437.475
AAUSAT CUBESAT 2 08 Dec 08:38:03 08:41:33 26° 96° (E) 08:45:01 437.432
ZACube-1 08 Dec 08:40:58 08:41:51 11° 91° (E) 08:42:45 437.345
CANX-2 08 Dec 08:44:20 08:48:32 70° 284° (WNW) 08:52:43 2200.000
PRISM 08 Dec 08:45:14 08:48:54 33° 71° (ENE) 08:52:35 437.425
FUNcube-1 08 Dec 08:46:43 08:48:09 11° 91° (E) 08:49:34 145.935
TIGRISAT 08 Dec 08:58:47 08:59:48 11° 63° (ENE) 09:00:48 435.000
Cosmos 2504 08 Dec 08:59:26 09:06:51 33° 276° (W) 09:13:53 435.465 / 435.565
ANTELSAT 08 Dec 09:00:09 09:01:53 12° 64° (ENE) 09:03:37 437.575/2403.000
CINEMA 3 08 Dec 09:00:29 09:04:46 34° 289° (WNW) 09:08:51 145.822/145.860
CUBEBUG 2 08 Dec 09:01:37 09:05:54 57° 100° (E) 09:10:03 437.445
SEEDS 08 Dec 09:04:36 09:08:46 71° 284° (WNW) 09:12:57 437.485
AIST 2 08 Dec 09:06:30 09:09:49 23° 309° (NW) 09:13:11 435.215
COMPASS 1 08 Dec 09:10:16 09:14:27 87° 105° (ESE) 09:18:37 437.405
Oscar 11 08 Dec 09:12:22 09:15:53 24° 96° (E) 09:19:23 145.826/435.025
CUSAT 1 08 Dec 09:23:39 09:26:23 27° 97° (E) 09:28:46 437.405
UWE-3 08 Dec 09:38:50 09:43:07 82° 282° (WNW) 09:47:16 435.000/436.395/437.385
Cosmos 2491 08 Dec 09:54:38 09:58:40 14° 298° (WNW) 10:02:44 435.465 / 435.565
HO-68 08 Dec 10:01:20 10:07:27 31° 297° (WNW) 10:13:34 435.675
UNISAT 6 08 Dec 10:02:05 10:06:40 57° 74° (ENE) 10:11:13 437.425
CUTE 1.7 + AOD 2 08 Dec 10:04:13 10:05:17 11° 295° (WNW) 10:06:19 437.475
RS-15 08 Dec 10:10:02 10:20:16 32° 322° (NW) 10:30:53 29.354- 29.394
AAUSAT CUBESAT 2 08 Dec 10:13:39 10:16:51 22° 290° (WNW) 10:20:04 437.432
ZACube-1 08 Dec 10:14:22 10:18:27 51° 286° (WNW) 10:22:28 437.345
FUNcube-1 08 Dec 10:20:38 10:24:39 47° 286° (WNW) 10:28:37 145.935
PRISM 08 Dec 10:21:44 10:24:16 16° 266° (W) 10:26:49 437.425
JAS-2 08 Dec 10:29:37 10:34:47 27° 68° (ENE) 10:39:31 435.910
TIGRISAT 08 Dec 10:31:10 10:35:51 74° 258° (WSW) 10:40:30 435.000
QB50P1 08 Dec 10:31:20 10:32:39 11° 64° (ENE) 10:33:58 145.935-145.965
DANDE 08 Dec 10:32:22 10:36:59 62° 98° (E) 10:40:30 436.750
ANTELSAT 08 Dec 10:33:21 10:38:00 66° 258° (WSW) 10:42:38 437.575/2403.000
CUBEBUG 2 08 Dec 10:40:37 10:41:56 11° 296° (WNW) 10:43:15 437.445
JUGNU 08 Dec 10:46:23 10:48:20 12° 169° (S) 10:50:16 437.505
Oscar 11 08 Dec 10:48:24 10:51:55 25° 290° (WNW) 10:55:26 145.826/435.025
DELFI C3 08 Dec 10:49:22 10:53:19 65° 284° (WNW) 10:57:16 145.870
POPSAT HIP 1 08 Dec 10:51:13 10:54:15 19° 68° (ENE) 10:57:16 437.405
AO-85 08 Dec 11:11:33 11:15:28 71° 58° (ENE) 11:19:19 145.980
BUGSAT 1 08 Dec 11:17:19 11:18:55 12° 65° (ENE) 11:20:30 437.445
HUMSAT D 08 Dec 11:19:40 11:23:40 57° 285° (WNW) 11:27:38 437.325/437.525
PCSat 08 Dec 11:20:24 11:25:43 62° 113° (ESE) 11:31:04 145.827
ESTCUBE 1 08 Dec 11:39:03 11:42:54 27° 96° (E) 11:46:45 437.505/2401.250
UNISAT 6 08 Dec 11:41:38 11:43:39 13° 268° (W) 11:45:40 437.425
NANOSAT C BR1 08 Dec 11:42:32 11:46:47 71° 75° (ENE) 11:51:02 145.865
Cosmos 2499 08 Dec 11:50:23 11:58:36 49° 77° (ENE) 12:06:09 435.465 / 435.565
QB50P2 08 Dec 11:50:57 11:55:13 78° 257° (WSW) 11:59:32 145.880/145.840
POLYITAN 1 08 Dec 11:51:23 11:55:41 82° 258° (WSW) 12:00:00 437.675
CUBEBUG 1 08 Dec 11:54:00 11:57:34 23° 95° (E) 12:01:07 437.445
DUCHIFAT 1 08 Dec 12:03:23 12:07:37 70° 258° (WSW) 12:11:53 145.980
QB50P1 08 Dec 12:03:40 12:07:52 59° 259° (W) 12:12:07 145.935-145.965
GONETS M04 08 Dec 12:04:08 12:12:40 56° 79° (ENE) 12:21:12
VELOX 1 08 Dec 12:11:31 12:15:09 24° 96° (E) 12:18:45 145.980
JAS-2 08 Dec 12:13:35 12:19:41 41° 260° (W) 12:25:09 435.910
DX 1 08 Dec 12:17:14 12:19:30 14° 93° (E) 12:21:45 434.975-435.025
UKube-1 08 Dec 12:20:52 12:21:18 10° 91° (E) 12:21:43 .
SPROUT 08 Dec 12:25:20 12:28:41 22° 95° (E) 12:32:01 437.525
POPSAT HIP 1 08 Dec 12:25:54 12:29:45 33° 263° (W) 12:33:39 437.405
RS-15 08 Dec 12:31:39 12:38:41 16° 357° (N) 12:45:44 29.354- 29.394
JUGNU 08 Dec 12:33:18 12:36:31 15° 180° (S) 12:39:43 437.505
50 SAT 08 Dec 12:47:56 12:51:26 53° 100° (E) 12:54:56 437.505
BUGSAT 1 08 Dec 12:49:37 12:53:45 54° 260° (W) 12:57:57 437.445
Oscar 19 08 Dec 12:56:53 13:01:34 38° 70° (ENE) 13:06:18 437.125/150
PCSat 08 Dec 13:05:47 13:09:32 19° 311° (NW) 13:13:19 145.827
AISAT 08 Dec 13:10:30 13:14:57 66° 285° (WNW) 13:19:22 437.250
Gurwin Techsat 1B 08 Dec 13:14:28 13:18:59 29° 68° (ENE) 13:23:30 435.225
ESTCUBE 1 08 Dec 13:15:54 13:19:34 25° 291° (WNW) 13:23:14 437.505/2401.250
CUBEBUG 1 08 Dec 13:30:01 13:33:46 27° 290° (WNW) 13:37:31 437.445
TISAT 1 08 Dec 13:37:45 13:41:03 22° 95° (E) 13:44:18 437.305
AO-7 08 Dec 13:42:27 13:47:20 17° 52° (NE) 13:52:13 29.400- 29.500
Cosmos 2499 08 Dec 13:44:12 13:51:14 31° 276° (W) 13:57:51 435.465 / 435.565
VELOX 1 08 Dec 13:47:45 13:51:32 27° 290° (WNW) 13:55:17 145.980
DX 1 08 Dec 13:51:41 13:55:54 46° 287° (WNW) 14:00:04 434.975-435.025
UKube-1 08 Dec 13:53:23 13:57:40 60° 285° (WNW) 14:01:55 .
SPROUT 08 Dec 14:00:56 14:04:33 27° 290° (WNW) 14:08:09 437.525
GONETS M04 08 Dec 14:01:52 14:08:54 29° 276° (W) 14:15:59
BEESAT 3 08 Dec 14:01:56 14:05:54 62° 58° (ENE) 14:09:50 437.485
SRMSAT 08 Dec 14:17:29 14:20:26 14° 175° (S) 14:23:23 437.500
JUGNU 08 Dec 14:22:36 14:24:42 12° 190° (S) 14:26:47 437.505
M-CUBED/EXP-1 PRIME 08 Dec 14:28:05 14:30:12 13° 95° (E) 14:32:17 437.505
BEESAT 2 08 Dec 14:36:53 14:40:54 68° 59° (ENE) 14:44:54 435.950
Oscar 19 08 Dec 14:37:01 14:40:58 22° 265° (W) 14:44:57 437.125/150
RS-15 08 Dec 14:47:25 14:57:32 28° 33° (NNE) 15:07:26 29.354- 29.394
SWISSCUBE 08 Dec 14:48:07 14:52:14 29° 97° (E) 14:56:19 437.505
BEESAT 08 Dec 14:51:54 14:55:58 28° 97° (E) 15:00:01 436.000
Gurwin Techsat 1B 08 Dec 14:54:07 14:58:48 32° 263° (W) 15:03:31 435.225
ITAMSAT 1 08 Dec 15:09:46 15:14:59 83° 76° (ENE) 15:20:13 435.822/435.867
TISAT 1 08 Dec 15:13:05 15:16:37 26° 290° (WNW) 15:20:07 437.305
ITUPSAT 1 08 Dec 15:20:57 15:25:39 57° 101° (E) 15:30:18 437.325
AO-7 08 Dec 15:30:32 15:38:50 82° 71° (ENE) 15:47:12 29.400- 29.500
ISS 08 Dec 15:32:13 15:35:26 58° 136° (SE) 15:38:41 145.825
MOZHAYETS 4 08 Dec 15:34:09 15:37:18 18° 94° (E) 15:40:27
AUBIESAT-1 08 Dec 15:45:43 15:50:18 82° 109° (ESE) 15:54:35 437.475
AIST 2 08 Dec 15:52:13 15:54:03 12° 45° (NE) 15:55:52 435.215
O/OREOS (USA 219) 08 Dec 15:56:17 16:00:48 62° 108° (ESE) 16:05:18 437.305
M-CUBED/EXP-1 PRIME 08 Dec 16:00:27 16:05:00 55° 291° (WNW) 16:09:18 437.505
SRMSAT 08 Dec 16:05:58 16:08:46 14° 186° (S) 16:11:34 437.500
SWISSCUBE 08 Dec 16:25:58 16:29:53 26° 292° (WNW) 16:33:47 437.505
BEESAT 08 Dec 16:29:41 16:33:38 27° 291° (WNW) 16:37:34 436.000
BRITE-PL 08 Dec 16:30:22 16:33:49 23° 68° (ENE) 16:37:25 437.365/2234.400
RS-15 08 Dec 16:59:48 17:12:15 82° 60° (ENE) 17:24:12 29.354- 29.394
ITUPSAT 1 08 Dec 17:00:30 17:02:58 14° 296° (WNW) 17:05:24 437.325
CUTE-I 08 Dec 17:06:28 17:09:36 16° 63° (ENE) 17:12:45 437.470
ISS 08 Dec 17:09:52 17:12:11 18° 333° (NNW) 17:14:31 145.825
MOZHAYETS 4 08 Dec 17:10:22 17:14:33 37° 288° (WNW) 17:18:44
STARS 08 Dec 17:17:46 17:22:01 45° 100° (E) 17:26:13 437.465
NOAA 15 08 Dec 17:18:55 17:22:55 23° 66° (ENE) 17:26:56 137.62
KKS-1 08 Dec 17:19:37 17:24:06 74° 284° (WNW) 17:28:32 437.445
CUBESAT XI-V 08 Dec 17:20:29 17:24:49 37° 98° (E) 17:29:09 437.345
AUBIESAT-1 08 Dec 17:23:23 17:23:55 10° 303° (WNW) 17:24:27 437.475
DOVE 4 08 Dec 17:26:03 17:29:09 17° 64° (ENE) 17:32:22 437.250
AO-7 08 Dec 17:27:04 17:32:22 18° 267° (W) 17:37:43 29.400- 29.500
GOMX 1 08 Dec 17:28:38 17:32:56 41° 71° (ENE) 17:37:34 467.674
AIST 2 08 Dec 17:28:47 17:33:00 71° 242° (WSW) 17:37:11 435.215
HORYU 2 08 Dec 17:29:12 17:33:41 87° 75° (ENE) 17:38:11 437.375
Cubesat XI-IV 08 Dec 17:31:48 17:36:15 27° 67° (ENE) 17:40:43 437.490
O/OREOS (USA 219) 08 Dec 17:38:36 17:40:36 13° 304° (NW) 17:42:37 437.305
NOAA 18 08 Dec 17:38:42 17:42:48 22° 64° (ENE) 17:46:53 137.9125
Cosmos 2491 08 Dec 18:05:01 18:13:22 48° 77° (ENE) 18:21:39 435.465 / 435.565
BRITE-PL 08 Dec 18:08:27 18:12:08 27° 265° (W) 18:16:04 437.365/2234.400
CINEMA 3 08 Dec 18:23:27 18:26:35 17° 65° (ENE) 18:29:45 145.822/145.860
LilacSat-2 08 Dec 18:25:19 18:29:10 80° 258° (WSW) 18:33:02 437.200
YUBILEINY 08 Dec 18:29:16 18:36:27 30° 84° (E) 18:43:40 435.215
HO-68 08 Dec 18:40:02 18:45:54 28° 62° (ENE) 18:51:46 435.675
CUTE-I 08 Dec 18:43:47 18:49:05 63° 259° (WSW) 18:54:25 437.470
STRAND 1 08 Dec 18:55:09 18:56:48 11° 91° (E) 18:58:27 437.568
STARS 08 Dec 18:55:26 18:57:56 15° 295° (WNW) 19:00:26 437.465
NOAA 15 08 Dec 18:57:31 19:02:25 40° 261° (W) 19:07:20 137.62
CUBESAT XI-V 08 Dec 18:58:32 19:01:55 20° 292° (WNW) 19:05:18 437.345
DOVE 4 08 Dec 19:01:39 19:06:18 51° 261° (W) 19:11:16 437.250
GOMX 1 08 Dec 19:08:08 19:11:15 18° 269° (W) 19:14:31 467.674
Cubesat XI-IV 08 Dec 19:11:16 19:16:08 35° 262° (W) 19:21:02 437.490
RS-15 08 Dec 19:14:13 19:23:15 25° 260° (W) 19:32:06 29.354- 29.394
CUTE 1.7 + AOD 2 08 Dec 19:16:19 19:20:00 30° 71° (ENE) 19:23:41 437.475
NOAA 18 08 Dec 19:17:44 19:23:03 48° 260° (W) 19:28:26 137.9125
AAUSAT CUBESAT 2 08 Dec 19:27:25 19:29:24 13° 66° (ENE) 19:31:21 437.432
CANX-2 08 Dec 19:34:26 19:38:34 59° 76° (ENE) 19:42:43 2200.000
SO-50 08 Dec 19:39:34 19:44:13 52° 116° (ESE) 19:48:49 436.795
Cosmos 2504 08 Dec 19:39:59 19:47:42 43° 87° (E) 19:55:49 435.465 / 435.565
SEEDS 08 Dec 19:53:39 19:57:43 55° 75° (ENE) 20:01:48 437.485
CUSAT 1 08 Dec 19:55:21 19:58:30 20° 78° (ENE) 20:02:17 437.405
CUBEBUG 2 08 Dec 19:56:45 20:01:09 38° 72° (ENE) 20:05:30 437.445
CINEMA 3 08 Dec 19:58:25 20:03:13 52° 261° (W) 20:08:08 145.822/145.860
COMPASS 1 08 Dec 19:58:33 20:02:25 40° 73° (ENE) 20:06:17 437.405
Cosmos 2491 08 Dec 20:02:21 20:09:51 34° 275° (W) 20:17:20 435.465 / 435.565
Oscar 11 08 Dec 20:05:57 20:08:23 15° 67° (ENE) 20:10:49 145.826/435.025
PCSat 08 Dec 20:10:49 20:15:37 31° 54° (NE) 20:20:23 145.827
AIST 1 08 Dec 20:20:10 20:24:27 75° 277° (W) 20:28:50
YUBILEINY 08 Dec 20:24:19 20:32:44 53° 282° (WNW) 20:41:16 435.215
HO-68 08 Dec 20:26:16 20:33:12 52° 259° (W) 20:40:12 435.675
STRAND 1 08 Dec 20:31:21 20:36:26 70° 285° (WNW) 20:41:28 437.568
UWE-3 08 Dec 20:32:39 20:37:14 60° 75° (ENE) 20:41:46 435.000/436.395/437.385
CUTE 1.7 + AOD 2 08 Dec 20:52:49 20:55:50 19° 266° (W) 20:58:52 437.475
AAUSAT CUBESAT 2 08 Dec 21:00:32 21:04:27 43° 261° (W) 21:08:23 437.432
ZACube-1 08 Dec 21:06:54 21:11:28 87° 74° (ENE) 21:15:58 437.345
DANDE 08 Dec 21:10:58 21:13:36 24° 80° (E) 21:16:47 436.750
FUNcube-1 08 Dec 21:12:51 21:17:23 87° 258° (WSW) 21:21:52 145.935
SO-50 08 Dec 21:21:35 21:24:58 19° 313° (NW) 21:28:19 436.795
DELFI C3 08 Dec 21:32:27 21:36:13 48° 75° (ENE) 21:40:00 145.870
Cosmos 2504 08 Dec 21:33:23 21:41:03 39° 286° (WNW) 21:49:10 435.465 / 435.565
CUBEBUG 2 08 Dec 21:34:24 21:37:48 19° 266° (W) 21:41:13 437.445
COMPASS 1 08 Dec 21:36:03 21:38:07 13° 268° (W) 21:40:11 437.405
CUSAT 1 08 Dec 21:36:33 21:40:16 30° 264° (W) 21:44:55 437.405
Oscar 11 08 Dec 21:40:02 21:44:08 43° 261° (W) 21:48:15 145.826/435.025
PCSat 08 Dec 21:54:09 21:58:58 33° 251° (WSW) 22:03:45 145.827
UNISAT 6 08 Dec 21:58:04 22:00:05 13° 92° (E) 22:02:04 437.425
ISS 08 Dec 22:02:12 22:05:08 29° 33° (NNE) 22:08:04 145.825
PRISM 08 Dec 22:03:22 22:07:33 79° 103° (ESE) 22:11:42 437.425
HUMSAT D 08 Dec 22:07:59 22:12:09 68° 76° (ENE) 22:16:18 437.325/437.525
UWE-3 08 Dec 22:12:19 22:13:59 12° 269° (W) 22:15:39 435.000/436.395/437.385
TIGRISAT 08 Dec 22:25:43 22:29:20 26° 96° (E) 22:32:54 435.000
ANTELSAT 08 Dec 22:27:53 22:31:40 29° 96° (E) 22:35:23 437.575/2403.000
PHONESAT 2.4 08 Dec 22:34:08 22:35:46 15° 147° (SSE) 22:37:22 2401.200-2431.200
ESTCUBE 1 08 Dec 22:36:55 22:40:07 20° 67° (ENE) 22:43:19 437.505/2401.250
CUBEBUG 1 08 Dec 22:48:38 22:51:12 15° 66° (ENE) 22:53:46 437.445
DANDE 08 Dec 22:55:04 22:56:11 11° 265° (W) 22:57:22 436.750
VELOX 1 08 Dec 23:07:18 23:10:08 17° 66° (ENE) 23:12:58 145.980
DELFI C3 08 Dec 23:11:01 23:11:16 10° 269° (W) 23:11:31 145.870
SPROUT 08 Dec 23:17:43 23:19:53 14° 66° (ENE) 23:22:02 437.525
50 SAT 08 Dec 23:22:08 23:24:13 15° 69° (ENE) 23:26:20 437.505
JAS-2 08 Dec 23:24:52 23:29:08 24° 96° (E) 23:33:37 435.910
NANOSAT C BR1 08 Dec 23:30:55 23:32:56 13° 92° (E) 23:34:57 145.865
UNISAT 6 08 Dec 23:32:53 23:37:03 46° 287° (WNW) 23:41:08 437.425
ISS 08 Dec 23:38:46 23:41:35 26° 228° (SW) 23:44:23 145.825
QB50P2 08 Dec 23:38:58 23:42:04 20° 95° (E) 23:45:09 145.880/145.840
POLYITAN 1 08 Dec 23:39:31 23:42:29 19° 94° (E) 23:45:26 437.675
DUCHIFAT 1 08 Dec 23:50:26 23:53:38 21° 95° (E) 23:56:48 145.980
QB50P1 08 Dec 23:51:03 23:54:34 25° 96° (E) 23:58:03 145.935-145.965
TIGRISAT 09 Dec 00:02:26 00:05:54 24° 291° (WNW) 00:09:19 435.000
ANTELSAT 09 Dec 00:04:55 00:08:11 21° 292° (WNW) 00:11:24 437.575/2403.000
AISAT 09 Dec 00:05:03 00:09:28 81° 77° (ENE) 00:13:56 437.250
PHONESAT 2.4 09 Dec 00:08:01 00:10:40 87° 341° (NNW) 00:13:20 2401.200-2431.200
POPSAT HIP 1 09 Dec 00:12:29 00:16:33 44° 99° (E) 00:20:34 437.405
ESTCUBE 1 09 Dec 00:12:35 00:16:39 34° 262° (W) 00:20:45 437.505/2401.250
Cosmos 2499 09 Dec 00:22:41 00:30:36 44° 87° (E) 00:38:49 435.465 / 435.565
CUBEBUG 1 09 Dec 00:22:57 00:27:05 43° 261° (W) 00:31:17 437.445
TISAT 1 09 Dec 00:28:21 00:30:22 13° 65° (ENE) 00:32:23 437.305
BUGSAT 1 09 Dec 00:34:11 00:37:35 24° 96° (E) 00:40:55 437.445
VELOX 1 09 Dec 00:42:06 00:46:14 40° 262° (W) 00:50:25 145.980
DX 1 09 Dec 00:44:22 00:48:42 73° 258° (WSW) 00:53:04 434.975-435.025
UKube-1 09 Dec 00:45:06 00:49:24 84° 78° (ENE) 00:53:46 .
SPROUT 09 Dec 00:51:12 00:55:20 48° 260° (W) 00:59:32 437.525
50 SAT 09 Dec 00:54:20 00:57:16 25° 263° (W) 01:00:16 437.505
GONETS M04 09 Dec 01:01:50 01:10:27 69° 93° (E) 01:19:05
NANOSAT C BR1 09 Dec 01:04:51 01:08:51 43° 287° (WNW) 01:12:49 145.865
JAS-2 09 Dec 01:09:33 01:14:17 35° 290° (WNW) 01:19:17 435.910
Oscar 19 09 Dec 01:11:46 01:14:55 16° 93° (E) 01:18:03 437.125/150
M-CUBED/EXP-1 PRIME 09 Dec 01:12:27 01:14:03 12° 57° (ENE) 01:15:41 437.505
QB50P2 09 Dec 01:14:11 01:17:52 29° 289° (WNW) 01:21:31 145.880/145.840
POLYITAN 1 09 Dec 01:14:35 01:18:18 31° 289° (WNW) 01:22:00 437.675
AO-85 09 Dec 01:22:49 01:27:34 44° 115° (ESE) 01:32:01 145.980
DUCHIFAT 1 09 Dec 01:25:42 01:29:16 27° 290° (WNW) 01:32:49 145.980
QB50P1 09 Dec 01:26:51 01:30:12 23° 291° (WNW) 01:33:32 145.935-145.965
Gurwin Techsat 1B 09 Dec 01:34:23 01:36:47 13° 91° (E) 01:39:11 435.225
PHONESAT 2.4 09 Dec 01:43:33 01:46:02 35° 357° (N) 01:48:30 2401.200-2431.200
POPSAT HIP 1 09 Dec 01:49:43 01:51:54 14° 294° (WNW) 01:54:04 437.405
SWISSCUBE 09 Dec 01:52:29 01:56:26 26° 68° (ENE) 02:00:23 437.505
BEESAT 09 Dec 01:56:12 02:00:07 26° 68° (ENE) 02:04:02 436.000
TISAT 1 09 Dec 02:01:27 02:05:33 48° 260° (W) 02:09:41 437.305
O/OREOS (USA 219) 09 Dec 02:08:33 02:13:03 81° 69° (ENE) 02:17:30 437.305
BUGSAT 1 09 Dec 02:09:30 02:12:49 23° 291° (WNW) 02:16:05 437.445
Cosmos 2499 09 Dec 02:15:50 02:23:43 39° 286° (WNW) 02:31:53 435.465 / 435.565
ITUPSAT 1 09 Dec 02:25:16 02:29:53 51° 73° (ENE) 02:34:31 437.325
AUBIESAT-1 09 Dec 02:28:35 02:32:42 67° 70° (ENE) 02:37:08 437.475
MOZHAYETS 4 09 Dec 02:34:43 02:37:10 14° 65° (ENE) 02:39:36
M-CUBED/EXP-1 PRIME 09 Dec 02:43:46 02:47:50 65° 254° (WSW) 02:52:16 437.505
Oscar 19 09 Dec 02:49:27 02:54:31 54° 287° (WNW) 02:59:33 437.125/150
GONETS M04 09 Dec 03:01:26 03:07:58 23° 292° (WNW) 03:14:33
AO-85 09 Dec 03:04:24 03:08:08 22° 309° (NW) 03:11:40 145.980
Gurwin Techsat 1B 09 Dec 03:11:52 03:17:09 67° 286° (WNW) 03:22:25 435.225
PHONESAT 2.4 09 Dec 03:18:52 03:21:28 54° 14° (NNE) 03:24:03 2401.200-2431.200
ITAMSAT 1 09 Dec 03:25:16 03:29:58 34° 98° (E) 03:34:38 435.822/435.867
SWISSCUBE 09 Dec 03:29:59 03:34:05 28° 263° (W) 03:38:12 437.505
BEESAT 09 Dec 03:33:37 03:37:45 29° 263° (W) 03:41:55 436.000
AO-7 09 Dec 03:35:25 03:42:38 31° 97° (E) 03:49:47 29.400- 29.500
BEESAT 3 09 Dec 03:51:03 03:53:38 17° 110° (ESE) 03:56:16 437.485
ITUPSAT 1 09 Dec 04:05:21 04:07:58 15° 267° (W) 04:10:35 437.325
MOZHAYETS 4 09 Dec 04:09:24 04:13:51 51° 260° (W) 04:18:20
STARS 09 Dec 04:12:08 04:16:01 30° 70° (ENE) 04:19:54 437.465
SO-50 09 Dec 04:13:34 04:17:20 25° 50° (NE) 04:21:02 436.795
KKS-1 09 Dec 04:14:57 04:19:24 75° 76° (ENE) 04:23:53 437.445
CUBESAT XI-V 09 Dec 04:21:47 04:25:39 28° 70° (ENE) 04:29:32 437.345
BEESAT 2 09 Dec 04:27:10 04:30:02 20° 111° (ESE) 04:32:56 435.950
BRITE-PL 09 Dec 04:38:01 04:40:07 12° 90° (E) 04:42:14 437.365/2234.400
YUBILEINY 09 Dec 04:44:06 04:47:11 12° 61° (ENE) 04:50:16 435.215
PHONESAT 2.4 09 Dec 04:54:15 04:56:33 27° 209° (SSW) 04:58:50 2401.200-2431.200
ITAMSAT 1 09 Dec 05:05:02 05:09:14 26° 293° (WNW) 05:13:26 435.822/435.867
